Breckenridge, USA 16 day weather forecast

Slopes altitude range 2925 m - 3915m

Number of lifts: 23 Pistes: 155km

In some cases the lift and piste totals shown are for the ski domain (e.g. Three Valleys) rather than individual resort (e.g. Courchevel)

Overview

The 16 day weather forecast is fully updated 4 times every day.

    • Tue 24 APR 2018
    • Tue 24
    • -2C -1C
    • Wed 25 APR 2018
    • Wed 25
    • -6C -6C
    • Thu 26 APR 2018
    • Thu 26
    • -3C -2C
    • Fri 27 APR 2018
    • Fri 27
    • -4C -2C
    • Sat 28 APR 2018
    • Sat 28
    • -1C 1C
    • Sun 29 APR 2018
    • Sun 29
    • -4C 0C
    • Mon 30 APR 2018
    • Mon 30
    • -2C -1C
    • Tue 01 MAY 2018
    • Tue 01
    • 1C 2C
    • Wed 02 MAY 2018
    • Wed 02
    • -1C 1C
    • Thu 03 MAY 2018
    • Thu 03
    • -3C -1C
    • Fri 04 MAY 2018
    • Fri 04
    • -4C 7C
    • Sat 05 MAY 2018
    • Sat 05
    • -3C 13C
    • Sun 06 MAY 2018
    • Sun 06
    • -1C 14C
    • Mon 07 MAY 2018
    • Mon 07
    • 0C 13C
    • Tue 08 MAY 2018
    • Tue 08
    • 1C 15C
    • Wed 09 MAY 2018
    • Wed 09
    • 2C 18C

Date:

Time Type 0°C level Temp Chill Snow Cloud Speed Gust Dir Press
3:00 3112m -1°C -1_3 1cm 85% 3mph 4mph 1016mB
6:00 3000m -2°C -2_2 0cm 71% 2mph 3mph 1020mB
9:00 3082m -1°C -1_2 1cm 100% 2mph 3mph 1022mB
12:00 3034m -1°C -1_3 0cm 100% 3mph 4mph 1024mB
15:00 3362m 2°C 2_3 0cm 25% 3mph 11mph 1024mB
18:00 3535m 4°C 4_11 1cm 29% 11mph 22mph 1022mB
21:00 3652m 4°C 4_14 1cm 88% 14mph 27mph 1021mB
0:00 3482m 2°C 2_7 2cm 91% 7mph 21mph 1022mB
3:00 2687m -4°C -4_2 1cm 80% 2mph 3mph 1026mB
6:00 2415m -6°C -6_1 0cm 56% 1mph 2mph 1028mB
9:00 2367m -6°C -6_4 0cm 6% 4mph 5mph 1028mB
12:00 2342m -6°C -6_5 0cm 4% 5mph 6mph 1028mB
15:00 3273m 0°C 0_5 0cm 0% 5mph 8mph 1025mB
18:00 3571m 6°C 6_3 0cm 0% 3mph 4mph 1021mB
21:00 3839m 6°C 6_4 0cm 0% 4mph 6mph 1018mB
0:00 3904m 6°C 6_5 0cm 0% 5mph 9mph 1016mB
3:00 3059m -2°C -2_3 0cm 0% 3mph 4mph 1019mB
6:00 2913m -3°C -3_3 0cm 4% 3mph 4mph 1019mB
9:00 2854m -3°C -3_4 0cm 25% 4mph 5mph 1018mB
12:00 2788m -2°C -2_4 0cm 14% 4mph 5mph 1020mB
15:00 3372m 2°C 2_7 0cm 7% 7mph 17mph 1021mB
18:00 3499m 4°C 4_10 1cm 46% 10mph 16mph 1020mB
21:00 3650m 4°C 4_9 0cm 63% 9mph 13mph 1019mB
0:00 3662m 4°C 4_7 0cm 41% 7mph 10mph 1019mB
3:00 2887m -3°C -3_3 0cm 1% 3mph 4mph 1023mB
6:00 2952m -3°C -3_4 0cm 12% 4mph 6mph 1024mB
9:00 2790m -3°C -3_3 0cm 32% 3mph 4mph 1022mB
12:00 2767m -2°C -2_2 0cm 22% 2mph 3mph 1022mB
15:00 3687m 5°C 5_2 0cm 0% 2mph 3mph 1019mB
18:00 3976m 11°C 11_2 0cm 0% 2mph 5mph 1016mB
21:00 4167m 11°C 11_2 0cm 0% 2mph 5mph 1012mB
0:00 4054m 8°C 8_2 0cm 42% 2mph 4mph 1011mB
3:00 3935m 2°C 2_5 1cm 77% 5mph 6mph 1014mB
6:00 3810m 1°C 1_4 0cm 79% 4mph 6mph 1014mB
9:00 3480m 0°C 0_4 0cm 97% 4mph 5mph 1013mB
12:00 3449m 1°C 1_2 0cm 69% 2mph 3mph 1013mB
15:00 3887m 6°C 6_4 0cm 87% 4mph 6mph 1011mB
18:00 4072m 10°C 10_7 0cm 86% 7mph 10mph 1007mB
21:00 3933m 7°C 7_3 0cm 100% 3mph 7mph 1005mB
0:00 3977m 6°C 6_3 15cm 100% 3mph 11mph 1004mB
3:00 3949m 1°C 1_5 1cm 94% 5mph 6mph 1006mB
6:00 3430m 0°C 0_5 1cm 87% 5mph 6mph 1007mB
9:00 3002m -2°C -2_5 0cm 0% 5mph 6mph 1008mB
12:00 2751m 0°C 0_4 0cm 0% 4mph 5mph 1010mB
15:00 3573m 4°C 4_7 0cm 0% 7mph 25mph 1009mB
18:00 3850m 8°C 8_12 0cm 0% 12mph 22mph 1006mB
21:00 4068m 8°C 8_11 0cm 74% 11mph 19mph 1004mB
0:00 4095m 7°C 7_8 0cm 87% 8mph 17mph 1003mB
3:00 3836m 1°C 1_3 0cm 89% 3mph 4mph 1007mB
6:00 3143m -1°C -1_3 0cm 71% 3mph 5mph 1008mB
9:00 3049m -2°C -2_4 0cm 10% 4mph 5mph 1010mB
12:00 2945m -1°C -1_3 0cm 5% 3mph 3mph 1011mB
15:00 3669m 5°C 5_8 0cm 0% 8mph 27mph 1009mB
18:00 3961m 9°C 9_13 0cm 4% 13mph 25mph 1008mB
21:00 4054m 9°C 9_12 0cm 80% 12mph 18mph 1007mB
0:00 3924m 6°C 6_9 0cm 90% 9mph 16mph 1008mB
3:00 3220m -1°C -1_2 0cm 96% 2mph 2mph 1011mB
6:00 3468m -1°C -1_3 0cm 91% 3mph 4mph 1012mB
9:00 3402m 1°C 1_3 0cm 44% 3mph 3mph 1011mB
12:00 3325m 2°C 2_4 0cm 62% 4mph 5mph 1012mB
15:00 3381m 9°C 9_3 0cm 79% 3mph 17mph 1011mB
18:00 3570m 11°C 11_6 0cm 83% 6mph 12mph 1009mB
21:00 3560m 10°C 10_3 1cm 97% 3mph 9mph 1007mB
0:00 3425m 8°C 8_6 1cm 97% 6mph 7mph 1007mB
3:00 3296m 3°C 3_4 1cm 97% 4mph 5mph 1010mB
6:00 3384m 1°C 1_4 1cm 86% 4mph 4mph 1011mB
9:00 2598m -1°C -1_3 0cm 42% 3mph 3mph 1012mB
12:00 2683m 1°C 1_5 1cm 61% 5mph 8mph 1012mB
15:00 2694m 0°C 0_5 2cm 100% 5mph 8mph 1011mB
18:00 2814m 3°C 3_3 3cm 100% 3mph 7mph 1009mB
21:00 3048m 3°C 3_4 1cm 97% 4mph 9mph 1008mB
0:00 3045m 3°C 3_8 1cm 96% 8mph 12mph 1008mB
3:00 2508m -1°C -1_2 0cm 99% 2mph 2mph 1011mB
6:00 2326m -2°C -2_3 0cm 95% 3mph 4mph 1012mB
9:00 2536m -3°C -3_3 1cm 55% 3mph 5mph 1012mB
12:00 2516m -1°C -1_3 1cm 69% 3mph 4mph 1013mB
15:00 2830m 3°C 3_6 0cm 59% 6mph 11mph 1013mB
18:00 3020m 6°C 6_9 0cm 63% 9mph 15mph 1013mB
Morning 0.458333mm 1.875 2750m -1°C -1_3 15cm 90% 3mph 3mph 1023mB
Afternoon 0.197917mm 0.125 3296m 7°C 7_5 0cm 50% 5mph 10mph 1024mB
Morning 0.00520833mm 1.3125 2689m -2°C -2_4 10cm 36% 4mph 5mph 1028mB
Afternoon 0.0572917mm 0 3597m 13°C 13_1 0cm 0% 1mph 2mph 1026mB
Morning 0.817708mm 0.875 3406m 1°C 1_4 0cm 23% 4mph 6mph 1028mB
Afternoon 0.489583mm 0.125 3791m 14°C 14_3 0cm 9% 3mph 3mph 1023mB
Morning 1.14062mm 2.8125 3776m 3°C 3_3 0cm 64% 3mph 5mph 1025mB
Afternoon 0.28125mm 0.125 3916m 13°C 13_6 0cm 22% 6mph 7mph 1021mB
Morning 0.776042mm 0 3995m 4°C 4_4 0cm 70% 4mph 5mph 1021mB
Afternoon 0.385417mm 0 4065m 15°C 15_6 0cm 4% 6mph 7mph 1016mB
Morning 0.135417mm 0.375 4156m 4°C 4_5 0cm 82% 5mph 6mph 1017mB
Afternoon 0.385417mm 0 4205m 18°C 18_3 0cm 63% 3mph 5mph 1014mB

16 day outlook at a glance

Forecast issued: 24/04/2018 05:20:47

Chat

Your comments and questions. In a resort? Let us know what it's like!


Characters left 250

For terms and conditions see Readers Comments on the Cookie and privacy policy page.